Terug naar catalogus

STARLINK-33653

ActiefCommunicatieVLEO
NORAD 63380·PAYLOAD·🇺🇸 United States

Gelanceerd Mar 26, 2025 vanaf Vandenberg Space Force Base

Loading…

Volgende Passages (komende 24 uur)

TLE

VersSource: CelesTrak SupGP

Epoch: Sep 14, 2026, 21:30 UTC

1 63380C 25063T   26257.89631944  .00046369  00000+0  14912-2 0  2575
2 63380  53.1578 252.7418 0001428  89.3007 145.4118 15.31676586    15

Volg STARLINK-33653 in realtime met AllMySat

Download on the App Store